Location: Lake Arresoe
(56.0000°N, 12.5000°E)
Time: 09:03:13
(UTC+02:00)

Cosmos 1674 - Pass Details

Date: 15 August 2020
Orbit: 495 x 517 km, 82.5° (Epoch: 23 September)

Event Time Altitude Azimuth Distance (km) Brightness Sun altitude
Rises 02:44:22 0° 338° (NNW) 2,602 7.0 -17.6°
Reaches altitude 10° 02:46:49 10° 323° (NW) 1,715 5.7 -17.4°
Maximum altitude 02:49:44 22° 272° (W) 1,150 4.2 -17.3°
Enters shadow 02:50:06 21° 263° (W) 1,161 4.2 -17.2°
